Starlink 30124

operational
NORAD ID: 56690 Int'l Des: 2023-067 Owner: SPXS Country: US Constellation: starlink
LEOCIRCULAR

Starlink 30124について

説明を読み込み中...

リアルタイム位置

3D地球を読み込み中...

次回通過

高度履歴

Altitude vs Time

uPlot chart will show altitude changes over time

軌道要素

1 56690U 23067C 25257.44379110 .00002761 00000-0 21922-3 0 9999
2 56690 43.0023 152.4979 0000921 258.6297 101.4442 15.02557304129143
Epoch: Sep 14, 2025 • Age: 46 hours

現在のステータス

高度 558.2 km
速度 7.59 km/s
衛星直下点 12.75°N, 25.37°E
打ち上げ日 May 19, 2023
運用期間 2.3 years
タイプ internet

技術仕様

分類 Payload
質量 730.00 kg
乾燥質量 700.00 kg
総質量 730.00 kg
長さ 0.30 m
直径 4.10 m
スパン 29.00 m
形状 Box + pan
製造者 SPXS
バスタイプ Starlink V2M
フェーズステータス In Orbit
所有者/国 SPXS/US

大規模コンステレーション

Loading constellations...